User: anonymous   Login
Location: Brabourne
(51.1333°N, 1.0000°E)
Time: 10:34:00
(UTC+00:00)
Language:

Cosmos 858 Rocket - Orbit

View from above orbital plane
View from above orbital plane
View from above satellite
View from above satellite

Ground track
Ground track

The orbit data is extracted from the following two-line orbital elements,

1 09444U 76098B   21267.58860806 -.00000011  00000-0  51533-5 0  9995
2 09444  74.0502 306.4833 0012199  59.6074 300.6284 14.37961335792903
Epoch (UTC): 24 September 2021 14:07:35
Eccentricity: 0.0012199
inclination: 74.0502°
perigee height: 756 km
apogee height: 774 km
right ascension of ascending node: 306.4833°
argument of perigee: 59.6074°
revolutions per day: 14.37961335
mean anomaly at epoch: 300.6284°
orbit number at epoch: 79290

The dashed part of the orbit path shows where the satellite is in the earth's shadow,  

DLR